Radiation Dose at Monitoring Post of Fukushima Daini Nuclear Power Station
Date,Time,MP-1(microSv/h),MP-2(microSv/h),MP-3(microSv/h),MP-4(microSv/h),MP-5(microSv/h),MP-6(microSv/h),MP-7(microSv/h),Wind Direction,Wind Velocity(m/s),Rain
2023/05/07,00:00,0.155,0.140,0.223,0.218,0.217,0.125,0.081,north-northwest,5.0,Yes
2023/05/07,00:10,0.156,0.142,0.223,0.219,0.216,0.126,0.083,north-northwest,5.3,Yes
2023/05/07,00:20,0.155,0.142,0.224,0.218,0.217,0.126,0.082,north-northwest,5.2,Yes
2023/05/07,00:30,0.157,0.142,0.222,0.219,0.217,0.126,0.082,north-northwest,5.1,Yes
2023/05/07,00:40,0.156,0.143,0.224,0.219,0.219,0.127,0.083,northwest,5.1,Yes
2023/05/07,00:50,0.158,0.143,0.222,0.220,0.216,0.127,0.084,northwest,5.3,Yes
2023/05/07,01:00,0.157,0.142,0.225,0.220,0.218,0.127,0.083,north-northwest,5.4,Yes
2023/05/07,01:10,0.156,0.143,0.223,0.220,0.216,0.127,0.084,northwest,5.4,Yes
2023/05/07,01:20,-,-,-,-,-,-,-,-,-,-
2023/05/07,01:30,0.156,0.141,0.221,0.219,0.215,0.126,0.081,northwest,6.6,Yes
2023/05/07,01:40,0.155,0.140,0.222,0.217,0.217,0.124,0.082,northwest,6.0,Yes
2023/05/07,01:50,0.155,0.140,0.221,0.217,0.213,0.124,0.081,north,5.9,Yes
2023/05/07,02:00,0.153,0.138,0.220,0.215,0.215,0.124,0.080,north,6.4,Yes
2023/05/07,02:10,0.154,0.139,0.220,0.214,0.211,0.122,0.078,north,7.0,Yes
2023/05/07,02:20,0.152,0.139,0.219,0.216,0.213,0.123,0.079,north,6.1,Yes
2023/05/07,02:30,0.154,0.138,0.219,0.215,0.212,0.123,0.078,north,6.3,Yes
2023/05/07,02:40,0.153,0.139,0.219,0.216,0.214,0.123,0.080,north-northwest,6.6,Yes
2023/05/07,02:50,0.154,0.139,0.219,0.214,0.213,0.123,0.080,north-northwest,6.2,Yes
2023/05/07,03:00,0.154,0.140,0.219,0.217,0.214,0.123,0.080,north-northwest,6.4,Yes
2023/05/07,03:10,0.153,0.140,0.220,0.216,0.215,0.124,0.081,north-northwest,5.9,Yes
2023/05/07,03:20,0.155,0.140,0.220,0.216,0.214,0.124,0.081,north-northwest,6.9,Yes
2023/05/07,03:30,0.153,0.141,0.220,0.217,0.216,0.124,0.080,north-northwest,8.4,Yes
2023/05/07,03:40,0.155,0.140,0.220,0.217,0.215,0.124,0.080,north-northwest,7.4,Yes
2023/05/07,03:50,0.155,0.140,0.220,0.217,0.215,0.123,0.080,north,7.2,Yes
2023/05/07,04:00,0.155,0.142,0.221,0.218,0.216,0.125,0.081,north-northwest,6.8,Yes
2023/05/07,04:10,0.156,0.141,0.221,0.216,0.214,0.125,0.082,north-northwest,7.7,Yes
2023/05/07,04:20,0.156,0.143,0.224,0.219,0.218,0.127,0.083,north,7.5,Yes
2023/05/07,04:30,0.158,0.145,0.223,0.218,0.217,0.129,0.085,north-northwest,7.6,Yes
2023/05/07,04:40,0.158,0.144,0.223,0.220,0.218,0.130,0.085,north-northwest,7.3,Yes
2023/05/07,04:50,0.157,0.145,0.223,0.219,0.219,0.129,0.086,north-northwest,5.9,Yes
2023/05/07,05:00,0.157,0.145,0.223,0.219,0.217,0.130,0.085,north-northwest,6.7,Yes
2023/05/07,05:10,0.158,0.145,0.223,0.220,0.220,0.131,0.086,north,5.9,Yes
2023/05/07,05:20,0.159,0.147,0.224,0.221,0.218,0.131,0.087,north-northwest,7.5,Yes
2023/05/07,05:30,0.157,0.143,0.222,0.219,0.218,0.129,0.086,north-northwest,6.7,Yes
2023/05/07,05:40,0.155,0.143,0.221,0.218,0.218,0.129,0.084,north-northwest,6.6,Yes
2023/05/07,05:50,0.157,0.144,0.222,0.217,0.219,0.128,0.085,north-northwest,8.4,Yes
2023/05/07,06:00,0.157,0.144,0.222,0.217,0.218,0.130,0.084,north-northwest,7.5,Yes
2023/05/07,06:10,0.157,0.145,0.221,0.218,0.217,0.129,0.085,north-northwest,6.9,Yes
2023/05/07,06:20,0.157,0.145,0.222,0.218,0.217,0.130,0.086,north-northwest,7.5,Yes
2023/05/07,06:30,0.156,0.144,0.222,0.218,0.219,0.131,0.086,north-northwest,7.2,Yes
2023/05/07,06:40,0.157,0.145,0.222,0.218,0.219,0.130,0.087,north-northwest,7.3,Yes
2023/05/07,06:50,0.157,0.143,0.219,0.215,0.218,0.128,0.085,north-northwest,7.7,Yes
2023/05/07,07:00,0.155,0.142,0.220,0.216,0.219,0.128,0.085,north-northwest,6.5,Yes
2023/05/07,07:10,0.156,0.143,0.220,0.216,0.216,0.128,0.086,north-northwest,6.8,Yes
2023/05/07,07:20,0.155,0.143,0.220,0.216,0.217,0.130,0.086,north-northwest,7.6,Yes
2023/05/07,07:30,0.155,0.143,0.220,0.217,0.218,0.129,0.087,north-northwest,6.8,Yes
2023/05/07,07:40,0.157,0.143,0.219,0.216,0.216,0.129,0.086,north-northwest,7.6,Yes
2023/05/07,07:50,0.155,0.142,0.218,0.215,0.217,0.128,0.085,north-northwest,6.7,Yes
2023/05/07,08:00,0.154,0.141,0.218,0.214,0.215,0.128,0.084,north-northwest,8.1,Yes
2023/05/07,08:10,0.154,0.141,0.216,0.213,0.214,0.126,0.083,north-northwest,6.9,Yes
2023/05/07,08:20,0.153,0.140,0.215,0.210,0.214,0.125,0.082,north-northwest,6.9,Yes
2023/05/07,08:30,0.152,0.138,0.214,0.211,0.214,0.124,0.081,north-northwest,8.1,Yes
2023/05/07,08:40,0.152,0.138,0.214,0.210,0.213,0.124,0.081,north-northwest,6.5,Yes
2023/05/07,08:50,0.152,0.136,0.213,0.210,0.213,0.124,0.080,north-northwest,6.8,Yes
2023/05/07,09:00,0.151,0.137,0.213,0.211,0.212,0.123,0.080,north-northwest,7.5,Yes
2023/05/07,09:10,0.151,0.138,0.214,0.209,0.214,0.123,0.080,north-northwest,7.0,Yes
2023/05/07,09:20,0.151,0.137,0.213,0.209,0.213,0.124,0.080,north-northwest,6.5,Yes
2023/05/07,09:30,0.150,0.137,0.213,0.211,0.212,0.124,0.080,north,8.1,Yes
2023/05/07,09:40,0.151,0.137,0.213,0.209,0.214,0.122,0.080,north-northwest,8.4,Yes
2023/05/07,09:50,0.150,0.136,0.212,0.209,0.210,0.122,0.080,north-northwest,7.4,Yes
2023/05/07,10:00,0.150,0.137,0.212,0.209,0.211,0.122,0.079,north-northwest,7.7,Yes
2023/05/07,10:10,0.150,0.137,0.212,0.208,0.212,0.122,0.079,north-northwest,8.1,Yes
2023/05/07,10:20,0.151,0.139,0.213,0.208,0.211,0.124,0.080,north-northwest,7.8,Yes
2023/05/07,10:30,0.151,0.138,0.213,0.210,0.211,0.124,0.082,north-northwest,9.0,Yes
2023/05/07,10:40,0.153,0.141,0.213,0.210,0.214,0.124,0.082,north-northwest,7.4,Yes
2023/05/07,10:50,0.153,0.140,0.215,0.212,0.213,0.125,0.083,north-northwest,7.5,Yes
2023/05/07,11:00,0.153,0.140,0.216,0.211,0.214,0.126,0.083,north-northwest,8.8,Yes
2023/05/07,11:10,0.152,0.139,0.213,0.209,0.214,0.126,0.083,north-northwest,8.4,Yes
2023/05/07,11:20,0.151,0.139,0.215,0.211,0.212,0.124,0.082,north-northwest,7.6,Yes
2023/05/07,11:30,0.150,0.137,0.213,0.209,0.212,0.123,0.080,north-northwest,7.1,Yes
2023/05/07,11:40,0.151,0.138,0.214,0.207,0.210,0.123,0.081,north-northwest,7.3,Yes
2023/05/07,11:50,0.151,0.137,0.213,0.209,0.213,0.123,0.081,north-northwest,6.8,Yes
2023/05/07,12:00,0.151,0.138,0.212,0.208,0.213,0.122,0.081,north-northwest,7.4,Yes
2023/05/07,12:10,0.152,0.138,0.212,0.209,0.212,0.122,0.081,north-northwest,8.2,Yes
2023/05/07,12:20,0.151,0.138,0.213,0.209,0.212,0.124,0.081,north-northwest,7.7,Yes
2023/05/07,12:30,0.151,0.138,0.213,0.209,0.213,0.124,0.080,north-northwest,6.8,Yes
2023/05/07,12:40,0.151,0.137,0.212,0.208,0.211,0.123,0.080,north-northwest,7.0,Yes
2023/05/07,12:50,0.150,0.137,0.212,0.209,0.212,0.122,0.081,north-northwest,8.3,Yes
2023/05/07,13:00,0.151,0.137,0.213,0.207,0.211,0.122,0.080,north-northwest,7.1,Yes
2023/05/07,13:10,0.150,0.136,0.210,0.208,0.211,0.121,0.080,north-northwest,6.9,Yes
2023/05/07,13:20,0.149,0.136,0.211,0.207,0.211,0.122,0.079,north-northwest,7.5,Yes
2023/05/07,13:30,0.150,0.137,0.212,0.207,0.211,0.121,0.079,north-northwest,7.5,Yes
2023/05/07,13:40,0.150,0.136,0.211,0.206,0.211,0.122,0.079,north-northwest,6.9,Yes
2023/05/07,13:50,0.150,0.137,0.211,0.206,0.212,0.121,0.078,north-northwest,8.2,Yes
2023/05/07,14:00,0.149,0.136,0.211,0.207,0.210,0.121,0.078,north,8.8,Yes
2023/05/07,14:10,0.149,0.136,0.211,0.207,0.211,0.121,0.078,north-northwest,8.3,Yes
2023/05/07,14:20,0.150,0.136,0.211,0.208,0.210,0.121,0.080,north,7.5,Yes
2023/05/07,14:30,0.151,0.138,0.211,0.208,0.211,0.123,0.080,north-northwest,6.7,Yes
2023/05/07,14:40,0.150,0.138,0.212,0.206,0.212,0.124,0.081,north,8.1,Yes
2023/05/07,14:50,0.151,0.139,0.213,0.210,0.212,0.124,0.082,north-northwest,7.9,Yes
2023/05/07,15:00,0.153,0.140,0.215,0.209,0.214,0.125,0.083,north-northwest,6.0,Yes
2023/05/07,15:10,0.152,0.141,0.215,0.210,0.215,0.125,0.084,north-northwest,7.1,Yes
2023/05/07,15:20,0.154,0.141,0.214,0.211,0.216,0.126,0.085,north-northwest,7.3,Yes
2023/05/07,15:30,0.154,0.142,0.216,0.212,0.214,0.127,0.085,north-northwest,8.3,Yes
2023/05/07,15:40,0.153,0.143,0.217,0.212,0.216,0.127,0.085,north-northwest,6.9,Yes
2023/05/07,15:50,0.154,0.143,0.216,0.212,0.216,0.127,0.086,northwest,6.4,Yes
2023/05/07,16:00,0.155,0.142,0.217,0.211,0.214,0.128,0.086,north-northwest,7.7,Yes
2023/05/07,16:10,0.154,0.144,0.217,0.212,0.217,0.129,0.087,north-northwest,7.2,Yes
2023/05/07,16:20,0.154,0.143,0.217,0.211,0.216,0.128,0.087,north-northwest,7.1,Yes
2023/05/07,16:30,0.154,0.143,0.216,0.210,0.217,0.128,0.087,north-northwest,8.1,Yes
2023/05/07,16:40,0.153,0.143,0.217,0.211,0.217,0.128,0.087,north-northwest,7.3,Yes
2023/05/07,16:50,0.154,0.144,0.217,0.211,0.216,0.128,0.087,north-northwest,7.9,Yes
2023/05/07,17:00,0.154,0.142,0.216,0.209,0.216,0.127,0.088,north-northwest,7.9,Yes
2023/05/07,17:10,0.154,0.144,0.216,0.210,0.215,0.128,0.088,north-northwest,8.1,Yes
2023/05/07,17:20,0.154,0.144,0.216,0.210,0.216,0.127,0.087,north-northwest,9.0,Yes
2023/05/07,17:30,0.153,0.142,0.216,0.210,0.215,0.126,0.087,north-northwest,9.6,Yes
2023/05/07,17:40,0.153,0.143,0.215,0.209,0.216,0.126,0.087,north-northwest,8.5,Yes
2023/05/07,17:50,0.152,0.143,0.215,0.209,0.215,0.126,0.087,north-northwest,8.6,Yes
2023/05/07,18:00,0.152,0.143,0.215,0.209,0.216,0.126,0.087,north-northwest,9.0,Yes
2023/05/07,18:10,0.151,0.141,0.214,0.210,0.216,0.125,0.087,north-northwest,8.2,Yes
2023/05/07,18:20,0.151,0.141,0.213,0.209,0.214,0.125,0.086,north-northwest,8.6,Yes
2023/05/07,18:30,0.151,0.141,0.214,0.208,0.215,0.125,0.086,north-northwest,8.2,Yes
2023/05/07,18:40,0.150,0.141,0.213,0.208,0.214,0.124,0.085,northwest,8.7,Yes
2023/05/07,18:50,0.148,0.140,0.212,0.207,0.213,0.124,0.084,north-northwest,7.6,Yes
2023/05/07,19:00,0.149,0.139,0.211,0.206,0.213,0.123,0.084,north-northwest,9.5,Yes
2023/05/07,19:10,0.148,0.140,0.212,0.206,0.213,0.123,0.084,north-northwest,8.8,Yes
2023/05/07,19:20,0.147,0.138,0.211,0.206,0.212,0.122,0.084,north-northwest,8.4,Yes
2023/05/07,19:30,0.147,0.139,0.209,0.205,0.212,0.122,0.085,north-northwest,8.3,Yes
2023/05/07,19:40,0.147,0.138,0.211,0.205,0.211,0.121,0.083,north-northwest,7.7,Yes
2023/05/07,19:50,0.145,0.138,0.209,0.203,0.212,0.121,0.083,north-northwest,7.9,Yes
2023/05/07,20:00,0.146,0.137,0.209,0.206,0.212,0.120,0.082,north-northwest,9.2,Yes
2023/05/07,20:10,0.146,0.137,0.209,0.204,0.210,0.120,0.081,northwest,7.3,Yes
2023/05/07,20:20,0.145,0.137,0.208,0.203,0.209,0.121,0.081,north-northwest,8.9,Yes
2023/05/07,20:30,0.145,0.136,0.208,0.203,0.208,0.120,0.081,north-northwest,10.1,Yes
2023/05/07,20:40,0.145,0.136,0.207,0.203,0.209,0.119,0.080,north-northwest,9.5,Yes
2023/05/07,20:50,0.145,0.136,0.207,0.202,0.209,0.118,0.080,north-northwest,9.5,Yes
2023/05/07,21:00,0.145,0.135,0.207,0.203,0.209,0.118,0.080,north-northwest,8.3,Yes
2023/05/07,21:10,0.144,0.135,0.206,0.204,0.208,0.118,0.079,northwest,9.5,Yes
2023/05/07,21:20,0.144,0.134,0.206,0.202,0.209,0.117,0.079,north-northwest,8.9,Yes
2023/05/07,21:30,0.144,0.135,0.205,0.202,0.207,0.117,0.079,northwest,8.6,Yes
2023/05/07,21:40,0.142,0.134,0.205,0.202,0.208,0.117,0.078,northwest,8.3,Yes
2023/05/07,21:50,0.143,0.133,0.205,0.202,0.206,0.117,0.079,north-northwest,8.4,Yes
2023/05/07,22:00,0.143,0.133,0.204,0.201,0.207,0.117,0.078,north-northwest,8.7,Yes
2023/05/07,22:10,0.143,0.134,0.204,0.200,0.207,0.116,0.078,north-northwest,8.9,Yes
2023/05/07,22:20,0.143,0.133,0.205,0.199,0.206,0.116,0.078,north-northwest,8.7,Yes
2023/05/07,22:30,0.142,0.133,0.203,0.199,0.207,0.115,0.078,northwest,9.2,Yes
2023/05/07,22:40,0.143,0.133,0.203,0.199,0.208,0.117,0.078,northwest,8.7,Yes
2023/05/07,22:50,0.142,0.133,0.204,0.200,0.206,0.116,0.078,north-northwest,8.9,Yes
2023/05/07,23:00,0.143,0.132,0.204,0.200,0.208,0.116,0.077,northwest,9.5,Yes
2023/05/07,23:10,0.142,0.132,0.204,0.199,0.207,0.116,0.077,north-northwest,9.8,Yes
2023/05/07,23:20,0.143,0.133,0.204,0.199,0.206,0.115,0.078,northwest,10.6,Yes
2023/05/07,23:30,0.143,0.132,0.204,0.200,0.207,0.116,0.078,northwest,9.8,Yes
2023/05/07,23:40,0.142,0.133,0.203,0.199,0.207,0.116,0.078,northwest,9.2,Yes
2023/05/07,23:50,0.143,0.133,0.204,0.199,0.206,0.116,0.077,north-northwest,8.9,Yes
